TimeEST,TemperatureF,Dew PointF,Humidity,Sea Level PressureIn,VisibilityMPH,Wind Direction,Wind SpeedMPH,Gust SpeedMPH,PrecipitationIn,Events,Conditions,WindDirDegrees,DateUTC
12:03 AM,33.8,30.2,87,30.00,1.8,NNW,9.2,-,0.00,Snow,Light Snow,340,2013-03-08 05:03:00
12:32 AM,33.8,30.2,87,29.99,2.0,NNW,11.5,-,0.02,Snow,Light Snow,340,2013-03-08 05:32:00
12:56 AM,33.1,30.9,92,29.99,2.0,NNW,11.5,-,0.02,Snow,Light Snow,340,2013-03-08 05:56:00
1:10 AM,33.8,30.2,87,29.99,1.8,NNW,9.2,-,0.01,Snow,Light Snow,340,2013-03-08 06:10:00
1:27 AM,33.8,30.2,87,29.99,1.5,NNW,10.4,-,0.02,Snow,Light Snow,330,2013-03-08 06:27:00
1:56 AM,33.1,30.9,92,29.98,1.5,NNW,10.4,-,0.03,Snow,Light Snow,340,2013-03-08 06:56:00
2:05 AM,33.8,30.2,87,29.97,1.2,NNW,10.4,-,0.01,Snow,Light Snow,340,2013-03-08 07:05:00
2:16 AM,33.8,30.2,87,29.97,1.0,NNW,11.5,-,0.01,Snow,Light Snow,340,2013-03-08 07:16:00
2:49 AM,33.8,30.2,87,29.96,1.2,NNW,11.5,-,0.03,Snow,Light Snow,330,2013-03-08 07:49:00
2:56 AM,33.1,30.9,92,29.96,1.2,NNW,11.5,-,0.03,Snow,Light Snow,330,2013-03-08 07:56:00
3:37 AM,33.8,30.2,87,29.95,1.0,NNW,10.4,-,0.03,Snow,Light Snow,330,2013-03-08 08:37:00
3:56 AM,33.1,30.9,92,29.96,1.2,NNW,12.7,-,0.05,Snow,Light Snow,330,2013-03-08 08:56:00
4:12 AM,33.8,30.2,87,29.95,1.0,NNW,13.8,-,0.00,Snow,Light Snow,330,2013-03-08 09:12:00
4:52 AM,32.0,30.2,93,29.95,2.0,NNW,12.7,-,0.02,Snow,Light Snow,340,2013-03-08 09:52:00
4:56 AM,32.0,30.0,92,29.96,2.0,NNW,12.7,-,0.02,Snow,Light Snow,330,2013-03-08 09:56:00
5:07 AM,32.0,30.2,93,29.95,1.8,NNW,11.5,-,0.00,Snow,Light Snow,340,2013-03-08 10:07:00
5:56 AM,32.0,30.0,92,29.95,1.8,NNW,11.5,-,0.01,Snow,Light Snow,340,2013-03-08 10:56:00
6:56 AM,32.0,30.0,92,29.95,1.8,NNW,11.5,-,0.01,Snow,Light Snow,340,2013-03-08 11:56:00
7:25 AM,32.0,30.2,93,29.96,0.8,NNW,12.7,-,0.01,Snow,Light Snow,330,2013-03-08 12:25:00
7:56 AM,32.0,30.0,92,29.97,0.8,NNW,12.7,-,0.02,Snow,Light Snow,340,2013-03-08 12:56:00
8:10 AM,32.0,30.2,93,29.96,1.0,NNW,13.8,-,0.00,Snow,Light Snow,340,2013-03-08 13:10:00
8:31 AM,33.8,30.2,87,29.96,2.5,North,12.7,-,0.01,Snow,Light Snow,350,2013-03-08 13:31:00
8:40 AM,33.8,30.2,87,29.96,3.0,North,13.8,21.9,0.01,Snow,Light Snow,350,2013-03-08 13:40:00
8:56 AM,33.1,30.9,92,29.96,2.5,NNW,13.8,-,0.01,Snow,Light Snow,340,2013-03-08 13:56:00
9:13 AM,33.8,30.2,87,29.96,3.0,NNW,12.7,20.7,0.00,Snow,Light Snow,340,2013-03-08 14:13:00
9:56 AM,33.1,30.9,92,29.97,3.0,NNW,15.0,-,0.00,Snow,Light Snow,340,2013-03-08 14:56:00
10:11 AM,33.8,30.2,87,29.96,2.0,NNW,16.1,25.3,0.00,Snow,Light Snow,340,2013-03-08 15:11:00
10:18 AM,33.8,30.2,87,29.96,1.8,NNW,15.0,25.3,0.00,Snow,Light Snow,340,2013-03-08 15:18:00
10:22 AM,33.8,30.2,87,29.97,2.0,North,12.7,20.7,0.00,Snow,Light Snow,350,2013-03-08 15:22:00
10:31 AM,33.8,30.2,87,29.97,3.0,North,15.0,23.0,0.00,Snow,Light Snow,350,2013-03-08 15:31:00
10:53 AM,33.8,30.2,87,29.97,2.5,NNW,13.8,25.3,0.00,Snow,Light Snow,340,2013-03-08 15:53:00
10:56 AM,34.0,30.9,89,29.97,2.5,NNW,15.0,-,0.00,Snow,Light Snow,340,2013-03-08 15:56:00
11:01 AM,33.8,30.2,87,29.97,1.8,NNW,17.3,23.0,0.00,Snow,Light Snow,340,2013-03-08 16:01:00
11:56 AM,34.0,30.9,89,29.99,1.2,North,17.3,29.9,0.01,Snow,Light Snow,350,2013-03-08 16:56:00
12:30 PM,33.8,30.2,87,29.98,0.8,North,15.0,23.0,0.00,Snow,Light Snow,350,2013-03-08 17:30:00
12:40 PM,33.8,30.2,87,29.98,1.0,North,15.0,25.3,0.01,Snow,Light Snow,350,2013-03-08 17:40:00
12:56 PM,34.0,30.9,89,29.99,1.0,North,15.0,24.2,0.01,Snow,Light Snow,360,2013-03-08 17:56:00
1:56 PM,34.0,30.9,89,29.99,1.2,North,16.1,25.3,0.01,Snow,Light Snow,350,2013-03-08 18:56:00
2:08 PM,33.8,30.2,87,29.99,0.8,North,15.0,24.2,0.01,Snow,Light Snow,350,2013-03-08 19:08:00
2:16 PM,33.8,32.0,93,29.99,1.2,North,13.8,21.9,0.01,Snow,Light Snow,350,2013-03-08 19:16:00
2:56 PM,34.0,32.0,92,30.01,1.8,North,18.4,27.6,0.02,Snow,Light Snow,350,2013-03-08 19:56:00
3:03 PM,35.6,32.0,87,30.00,2.5,North,17.3,23.0,0.00,Snow,Light Snow,350,2013-03-08 20:03:00
3:11 PM,35.6,32.0,87,30.00,3.0,North,19.6,25.3,0.00,Snow,Light Snow,360,2013-03-08 20:11:00
3:56 PM,35.1,32.0,89,30.02,5.0,North,13.8,-,0.00,Snow,Light Snow,360,2013-03-08 20:56:00
4:39 PM,35.6,32.0,87,30.03,9.0,North,11.5,-,0.01,Snow,Light Snow,360,2013-03-08 21:39:00
4:56 PM,36.0,32.0,86,30.05,10.0,North,11.5,-,0.02,,Overcast,360,2013-03-08 21:56:00
5:56 PM,37.0,30.0,76,30.07,10.0,North,11.5,-,0.00,Rain,Light Rain,360,2013-03-08 22:56:00
6:56 PM,37.0,30.0,76,30.09,10.0,North,9.2,-,0.00,,Overcast,350,2013-03-08 23:56:00
7:56 PM,39.9,27.0,60,30.11,10.0,North,15.0,24.2,0.00,,Overcast,350,2013-03-09 00:56:00
8:56 PM,37.9,28.0,68,30.12,10.0,NNW,13.8,-,N/A,,Overcast,340,2013-03-09 01:56:00
9:56 PM,39.0,27.0,62,30.12,10.0,North,15.0,24.2,N/A,,Scattered Clouds,350,2013-03-09 02:56:00
10:56 PM,39.0,27.0,62,30.12,10.0,North,13.8,-,N/A,,Clear,350,2013-03-09 03:56:00
11:56 PM,37.9,26.1,62,30.13,10.0,North,15.0,-,N/A,,Clear,350,2013-03-09 04:56:00